Year,Month,Day,Hour,Minute,Value (Times are PST for temperature in C)
2009,05,21,00,00,8.90
2009,05,21,00,01,8.90
2009,05,21,00,02,8.90
2009,05,21,00,03,8.90
2009,05,21,00,04,9.00
2009,05,21,00,05,9.00
2009,05,21,00,06,9.00
2009,05,21,00,07,9.00
2009,05,21,00,08,9.00
2009,05,21,00,09,9.10
2009,05,21,00,10,9.10
2009,05,21,00,11,9.10
2009,05,21,00,12,9.00
2009,05,21,00,13,9.00
2009,05,21,00,14,9.00
2009,05,21,00,15,9.00
2009,05,21,00,16,9.00
2009,05,21,00,17,9.00
2009,05,21,00,18,9.00
2009,05,21,00,19,9.00
2009,05,21,00,20,9.00
2009,05,21,00,21,9.00
2009,05,21,00,22,9.00
2009,05,21,00,23,9.00
2009,05,21,00,24,9.00
2009,05,21,00,25,9.00
2009,05,21,00,26,9.00
2009,05,21,00,27,9.00
2009,05,21,00,28,9.00
2009,05,21,00,29,9.00
2009,05,21,00,30,9.00
2009,05,21,00,31,9.00
2009,05,21,00,32,9.00
2009,05,21,00,33,8.90
2009,05,21,00,34,8.90
2009,05,21,00,35,8.90
2009,05,21,00,36,8.90
2009,05,21,00,37,8.90
2009,05,21,00,38,8.90
2009,05,21,00,39,8.90
2009,05,21,00,40,8.90
2009,05,21,00,41,8.90
2009,05,21,00,42,8.90
2009,05,21,00,43,8.90
2009,05,21,00,44,8.90
2009,05,21,00,45,8.90
2009,05,21,00,46,8.90
2009,05,21,00,47,8.80
2009,05,21,00,48,8.80
2009,05,21,00,49,8.80
2009,05,21,00,50,8.70
2009,05,21,00,51,8.70
2009,05,21,00,52,8.70
2009,05,21,00,53,8.70
2009,05,21,00,54,8.60
2009,05,21,00,55,8.60
2009,05,21,00,56,8.60
2009,05,21,00,57,8.50
2009,05,21,00,58,8.50
2009,05,21,00,59,8.50
2009,05,21,01,00,8.40
2009,05,21,01,01,8.40
2009,05,21,01,02,8.30
2009,05,21,01,03,8.30
2009,05,21,01,04,8.30
2009,05,21,01,05,8.20
2009,05,21,01,06,8.20
2009,05,21,01,07,8.20
2009,05,21,01,08,8.20
2009,05,21,01,09,8.20
2009,05,21,01,10,8.10
2009,05,21,01,11,8.10
2009,05,21,01,12,8.00
2009,05,21,01,13,8.00
2009,05,21,01,14,8.00
2009,05,21,01,15,8.00
2009,05,21,01,16,7.90
2009,05,21,01,17,7.90
2009,05,21,01,18,7.90
2009,05,21,01,19,7.90
2009,05,21,01,20,7.80
2009,05,21,01,21,7.80
2009,05,21,01,22,7.80
2009,05,21,01,23,7.80
2009,05,21,01,24,7.80
2009,05,21,01,25,7.80
2009,05,21,01,26,7.80
2009,05,21,01,27,7.80
2009,05,21,01,28,7.80
2009,05,21,01,29,7.70
2009,05,21,01,30,7.70
2009,05,21,01,31,7.70
2009,05,21,01,32,7.70
2009,05,21,01,33,7.70
2009,05,21,01,34,7.60
2009,05,21,01,35,7.60
2009,05,21,01,36,7.60
2009,05,21,01,37,7.60
2009,05,21,01,38,7.60
2009,05,21,01,39,7.60
2009,05,21,01,40,7.50
2009,05,21,01,41,7.50
2009,05,21,01,42,7.50
2009,05,21,01,43,7.40
2009,05,21,01,44,7.40
2009,05,21,01,45,7.40
2009,05,21,01,46,7.30
2009,05,21,01,47,7.30
2009,05,21,01,48,7.30
2009,05,21,01,49,7.30
2009,05,21,01,50,7.30
2009,05,21,01,51,7.30
2009,05,21,01,52,7.30
2009,05,21,01,53,7.30
2009,05,21,01,54,7.20
2009,05,21,01,55,7.20
2009,05,21,01,56,7.20
2009,05,21,01,57,7.20
2009,05,21,01,58,7.20
2009,05,21,01,59,7.10
2009,05,21,02,00,7.10
2009,05,21,02,01,7.10
2009,05,21,02,02,7.10
2009,05,21,02,03,7.00
2009,05,21,02,04,7.00
2009,05,21,02,05,7.00
2009,05,21,02,06,7.00
2009,05,21,02,07,7.00
2009,05,21,02,08,6.90
2009,05,21,02,09,6.90
2009,05,21,02,10,6.90
2009,05,21,02,11,6.90
2009,05,21,02,12,6.80
2009,05,21,02,13,6.80
2009,05,21,02,14,6.80
2009,05,21,02,15,6.80
2009,05,21,02,16,6.80
2009,05,21,02,17,6.80
2009,05,21,02,18,6.80
2009,05,21,02,19,6.80
2009,05,21,02,20,6.80
2009,05,21,02,21,6.80
2009,05,21,02,22,6.80
2009,05,21,02,23,6.80
2009,05,21,02,24,6.70
2009,05,21,02,25,6.70
2009,05,21,02,26,6.70
2009,05,21,02,27,6.70
2009,05,21,02,28,6.70
2009,05,21,02,29,6.70
2009,05,21,02,30,6.70
2009,05,21,02,31,6.60
2009,05,21,02,32,6.60
2009,05,21,02,33,6.60
2009,05,21,02,34,6.60
2009,05,21,02,35,6.60
2009,05,21,02,36,6.60
2009,05,21,02,37,6.60
2009,05,21,02,38,6.60
2009,05,21,02,39,6.70
2009,05,21,02,40,6.70
2009,05,21,02,41,6.70
2009,05,21,02,42,6.70
2009,05,21,02,43,6.60
2009,05,21,02,44,6.60
2009,05,21,02,45,6.60
2009,05,21,02,46,6.60
2009,05,21,02,47,6.60
2009,05,21,02,48,6.60
2009,05,21,02,49,6.60
2009,05,21,02,50,6.60
2009,05,21,02,51,6.60
2009,05,21,02,52,6.60
2009,05,21,02,53,6.60
2009,05,21,02,54,6.60
2009,05,21,02,55,6.60
2009,05,21,02,56,6.60
2009,05,21,02,57,6.60
2009,05,21,02,58,6.60
2009,05,21,02,59,6.60
2009,05,21,03,00,6.50
2009,05,21,03,01,6.40
2009,05,21,03,02,6.40
2009,05,21,03,03,6.40
2009,05,21,03,04,6.40
2009,05,21,03,05,6.40
2009,05,21,03,06,6.40
2009,05,21,03,07,6.40
2009,05,21,03,08,6.40
2009,05,21,03,09,6.40
2009,05,21,03,10,6.40
2009,05,21,03,11,6.40
2009,05,21,03,12,6.40
2009,05,21,03,13,6.40
2009,05,21,03,14,6.40
2009,05,21,03,15,6.40
2009,05,21,03,16,6.30
2009,05,21,03,17,6.30
2009,05,21,03,18,6.30
2009,05,21,03,19,6.30
2009,05,21,03,20,6.20
2009,05,21,03,21,6.20
2009,05,21,03,22,6.20
2009,05,21,03,23,6.20
2009,05,21,03,24,6.20
2009,05,21,03,25,6.20
2009,05,21,03,26,6.20
2009,05,21,03,27,6.20
2009,05,21,03,28,6.20
2009,05,21,03,29,6.20
2009,05,21,03,30,6.20
2009,05,21,03,31,6.20
2009,05,21,03,32,6.20
2009,05,21,03,33,6.20
2009,05,21,03,34,6.20
2009,05,21,03,35,6.20
2009,05,21,03,36,6.20
2009,05,21,03,37,6.20
2009,05,21,03,38,6.20
2009,05,21,03,39,6.20
2009,05,21,03,40,6.20
2009,05,21,03,41,6.20
2009,05,21,03,42,6.20
2009,05,21,03,43,6.20
2009,05,21,03,44,6.10
2009,05,21,03,45,6.10
2009,05,21,03,46,6.10
2009,05,21,03,47,6.10
2009,05,21,03,48,6.10
2009,05,21,03,49,6.10
2009,05,21,03,50,6.10
2009,05,21,03,51,6.00
2009,05,21,03,52,6.00
2009,05,21,03,53,6.00
2009,05,21,03,54,6.00
2009,05,21,03,55,6.00
2009,05,21,03,56,5.90
2009,05,21,03,57,5.90
2009,05,21,03,58,5.90
2009,05,21,03,59,5.90
2009,05,21,04,00,6.00
2009,05,21,04,01,6.00
2009,05,21,04,02,6.00
2009,05,21,04,03,6.00
2009,05,21,04,04,6.00
2009,05,21,04,05,6.00
2009,05,21,04,06,6.00
2009,05,21,04,07,6.00
2009,05,21,04,08,6.00
2009,05,21,04,09,6.10
2009,05,21,04,10,6.10
2009,05,21,04,11,6.10
2009,05,21,04,12,6.10
2009,05,21,04,13,6.10
2009,05,21,04,14,6.10
2009,05,21,04,15,6.00
2009,05,21,04,16,6.00
2009,05,21,04,17,6.00
2009,05,21,04,18,5.90
2009,05,21,04,19,5.90
2009,05,21,04,20,5.80
2009,05,21,04,21,5.80
2009,05,21,04,22,5.70
2009,05,21,04,23,5.70
2009,05,21,04,24,5.70
2009,05,21,04,25,5.70
2009,05,21,04,26,5.70
2009,05,21,04,27,5.70
2009,05,21,04,28,5.70
2009,05,21,04,29,5.70
2009,05,21,04,30,5.70
2009,05,21,04,31,5.70
2009,05,21,04,32,5.60
2009,05,21,04,33,5.60
2009,05,21,04,34,5.60
2009,05,21,04,35,5.60
2009,05,21,04,36,5.60
2009,05,21,04,37,5.60
2009,05,21,04,38,5.60
2009,05,21,04,39,5.60
2009,05,21,04,40,5.60
2009,05,21,04,41,5.60
2009,05,21,04,42,5.60
2009,05,21,04,43,5.60
2009,05,21,04,44,5.60
2009,05,21,04,45,5.60
2009,05,21,04,46,5.60
2009,05,21,04,47,5.60
2009,05,21,04,48,5.60
2009,05,21,04,49,5.60
2009,05,21,04,50,5.60
2009,05,21,04,51,5.50
2009,05,21,04,52,5.50
2009,05,21,04,53,5.50
2009,05,21,04,54,5.50
2009,05,21,04,55,5.50
2009,05,21,04,56,5.50
2009,05,21,04,57,5.40
2009,05,21,04,58,5.40
2009,05,21,04,59,5.40
2009,05,21,05,00,5.30
2009,05,21,05,01,5.30
2009,05,21,05,02,5.30
2009,05,21,05,03,5.30
2009,05,21,05,04,5.30
2009,05,21,05,05,5.30
2009,05,21,05,06,5.30
2009,05,21,05,07,5.30
2009,05,21,05,08,5.30
2009,05,21,05,09,5.30
2009,05,21,05,10,5.30
2009,05,21,05,11,5.30
2009,05,21,05,12,5.30
2009,05,21,05,13,5.30
2009,05,21,05,14,5.30
2009,05,21,05,15,5.40
2009,05,21,05,16,5.40
2009,05,21,05,17,5.50
2009,05,21,05,18,5.50
2009,05,21,05,19,5.50
2009,05,21,05,20,5.60
2009,05,21,05,21,5.60
2009,05,21,05,22,5.60
2009,05,21,05,23,5.60
2009,05,21,05,24,5.60
2009,05,21,05,25,5.60
2009,05,21,05,26,5.60
2009,05,21,05,27,5.60
2009,05,21,05,28,5.60
2009,05,21,05,29,5.50
2009,05,21,05,30,5.50
2009,05,21,05,31,5.50
2009,05,21,05,32,5.50
2009,05,21,05,33,5.40
2009,05,21,05,34,5.40
2009,05,21,05,35,5.30
2009,05,21,05,36,5.30
2009,05,21,05,37,5.30
2009,05,21,05,38,5.30
2009,05,21,05,39,5.30
2009,05,21,05,40,5.20
2009,05,21,05,41,5.20
2009,05,21,05,42,5.20
2009,05,21,05,43,5.10
2009,05,21,05,44,5.10
2009,05,21,05,45,5.10
2009,05,21,05,46,5.10
2009,05,21,05,47,5.10
2009,05,21,05,48,5.10
2009,05,21,05,49,5.20
2009,05,21,05,50,5.20
2009,05,21,05,51,5.20
2009,05,21,05,52,5.20
2009,05,21,05,53,5.30
2009,05,21,05,54,5.30
2009,05,21,05,55,5.30
2009,05,21,05,56,5.30
2009,05,21,05,57,5.30
2009,05,21,05,58,5.30
2009,05,21,05,59,5.40
2009,05,21,06,00,5.40
2009,05,21,06,01,5.40
2009,05,21,06,02,5.40
2009,05,21,06,03,5.40
2009,05,21,06,04,5.50
2009,05,21,06,05,5.50
2009,05,21,06,06,5.50
2009,05,21,06,07,5.50
2009,05,21,06,08,5.60
2009,05,21,06,09,5.60
2009,05,21,06,10,5.60
2009,05,21,06,11,5.70
2009,05,21,06,12,5.70
2009,05,21,06,13,5.70
2009,05,21,06,14,5.80
2009,05,21,06,15,5.80
2009,05,21,06,16,5.90
2009,05,21,06,17,6.00
2009,05,21,06,18,6.00
2009,05,21,06,19,6.10
2009,05,21,06,20,6.20
2009,05,21,06,21,6.30
2009,05,21,06,22,6.30
2009,05,21,06,23,6.30
2009,05,21,06,24,6.40
2009,05,21,06,25,6.40
2009,05,21,06,26,6.40
2009,05,21,06,27,6.60
2009,05,21,06,28,6.60
2009,05,21,06,29,6.70
2009,05,21,06,30,6.70
2009,05,21,06,31,6.80
2009,05,21,06,32,6.80
2009,05,21,06,33,6.90
2009,05,21,06,34,7.00
2009,05,21,06,35,7.00
2009,05,21,06,36,7.10
2009,05,21,06,37,7.30
2009,05,21,06,38,7.40
2009,05,21,06,39,7.50
2009,05,21,06,40,7.70
2009,05,21,06,41,7.80
2009,05,21,06,42,7.90
2009,05,21,06,43,8.00
2009,05,21,06,44,8.20
2009,05,21,06,45,8.30
2009,05,21,06,46,8.40
2009,05,21,06,47,8.40
2009,05,21,06,48,8.50
2009,05,21,06,49,8.40
2009,05,21,06,50,8.40
2009,05,21,06,51,8.40
2009,05,21,06,52,8.40
2009,05,21,06,53,8.40
2009,05,21,06,54,8.50
2009,05,21,06,55,8.60
2009,05,21,06,56,8.70
2009,05,21,06,57,8.70
2009,05,21,06,58,8.90
2009,05,21,06,59,9.00
2009,05,21,07,00,9.00
2009,05,21,07,01,9.00
2009,05,21,07,02,9.00
2009,05,21,07,03,9.00
2009,05,21,07,04,9.00
2009,05,21,07,05,9.10
2009,05,21,07,06,9.10
2009,05,21,07,07,9.20
2009,05,21,07,08,9.10
2009,05,21,07,09,9.10
2009,05,21,07,10,9.10
2009,05,21,07,11,9.10
2009,05,21,07,12,9.10
2009,05,21,07,13,9.20
2009,05,21,07,14,9.40
2009,05,21,07,15,9.50
2009,05,21,07,16,9.60
2009,05,21,07,17,9.70
2009,05,21,07,18,9.80
2009,05,21,07,19,9.90
2009,05,21,07,20,10.00
2009,05,21,07,21,10.10
2009,05,21,07,22,10.20
2009,05,21,07,23,10.30
2009,05,21,07,24,10.40
2009,05,21,07,25,10.40
2009,05,21,07,26,10.50
2009,05,21,07,27,10.60
2009,05,21,07,28,10.60
2009,05,21,07,29,10.70
2009,05,21,07,30,10.80
2009,05,21,07,31,10.90
2009,05,21,07,32,10.90
2009,05,21,07,33,10.90
2009,05,21,07,34,10.90
2009,05,21,07,35,10.90
2009,05,21,07,36,11.00
2009,05,21,07,37,10.90
2009,05,21,07,38,10.90
2009,05,21,07,39,10.90
2009,05,21,07,40,10.90
2009,05,21,07,41,10.90
2009,05,21,07,42,11.00
2009,05,21,07,43,11.10
2009,05,21,07,44,11.10
2009,05,21,07,45,11.10
2009,05,21,07,46,11.00
2009,05,21,07,47,10.90
2009,05,21,07,48,10.90
2009,05,21,07,49,10.90
2009,05,21,07,50,10.90
2009,05,21,07,51,10.90
2009,05,21,07,52,10.90
2009,05,21,07,53,10.90
2009,05,21,07,54,10.90
2009,05,21,07,55,10.90
2009,05,21,07,56,10.90
2009,05,21,07,57,11.10
2009,05,21,07,58,11.10
2009,05,21,07,59,11.20
2009,05,21,08,00,11.20
2009,05,21,08,01,11.30
2009,05,21,08,02,11.40
2009,05,21,08,03,11.50
2009,05,21,08,04,11.60
2009,05,21,08,05,11.70
2009,05,21,08,06,11.80
2009,05,21,08,07,11.80
2009,05,21,08,08,11.90
2009,05,21,08,09,11.90
2009,05,21,08,10,11.90
2009,05,21,08,11,11.90
2009,05,21,08,12,11.90
2009,05,21,08,13,11.80
2009,05,21,08,14,11.80
2009,05,21,08,15,11.80
2009,05,21,08,16,11.80
2009,05,21,08,17,11.80
2009,05,21,08,18,11.80
2009,05,21,08,19,11.80
2009,05,21,08,20,11.80
2009,05,21,08,21,11.80
2009,05,21,08,22,11.80
2009,05,21,08,23,11.80
2009,05,21,08,24,11.80
2009,05,21,08,25,11.80
2009,05,21,08,26,11.90
2009,05,21,08,27,11.90
2009,05,21,08,28,11.90
2009,05,21,08,29,12.00
2009,05,21,08,30,12.00
2009,05,21,08,31,12.10
2009,05,21,08,32,12.10
2009,05,21,08,33,12.00
2009,05,21,08,34,12.00
2009,05,21,08,35,12.10
2009,05,21,08,36,12.10
2009,05,21,08,37,12.10
2009,05,21,08,38,12.00
2009,05,21,08,39,12.00
2009,05,21,08,40,12.00
2009,05,21,08,41,11.90
2009,05,21,08,42,11.90
2009,05,21,08,43,11.90
2009,05,21,08,44,11.80
2009,05,21,08,45,11.90
2009,05,21,08,46,11.90
2009,05,21,08,47,12.00
2009,05,21,08,48,12.00
2009,05,21,08,49,12.10
2009,05,21,08,50,12.10
2009,05,21,08,51,12.30
2009,05,21,08,52,12.30
2009,05,21,08,53,12.20
2009,05,21,08,54,12.20
2009,05,21,08,55,12.20
2009,05,21,08,56,12.20
2009,05,21,08,57,12.20
2009,05,21,08,58,12.20
2009,05,21,08,59,12.20
2009,05,21,09,00,12.20
2009,05,21,09,01,12.20
2009,05,21,09,02,12.20
2009,05,21,09,03,12.20
2009,05,21,09,04,12.30
2009,05,21,09,05,12.30
2009,05,21,09,06,12.30
2009,05,21,09,07,12.30
2009,05,21,09,08,12.40
2009,05,21,09,09,12.40
2009,05,21,09,10,12.50
2009,05,21,09,11,12.50
2009,05,21,09,12,12.50
2009,05,21,09,13,12.40
2009,05,21,09,14,12.50
2009,05,21,09,15,12.50
2009,05,21,09,16,12.50
2009,05,21,09,17,12.50
2009,05,21,09,18,12.50
2009,05,21,09,19,12.60
2009,05,21,09,20,12.60
2009,05,21,09,21,12.60
2009,05,21,09,22,12.50
2009,05,21,09,23,12.50
2009,05,21,09,24,12.50
2009,05,21,09,25,12.50
2009,05,21,09,26,12.50
2009,05,21,09,27,12.50
2009,05,21,09,28,12.50
2009,05,21,09,29,12.60
2009,05,21,09,30,12.50
2009,05,21,09,31,12.50
2009,05,21,09,32,12.60
2009,05,21,09,33,12.60
2009,05,21,09,34,12.70
2009,05,21,09,35,12.80
2009,05,21,09,36,12.80
2009,05,21,09,37,12.80
2009,05,21,09,38,12.80
2009,05,21,09,39,12.80
2009,05,21,09,40,12.80
2009,05,21,09,41,12.80
2009,05,21,09,42,12.80
2009,05,21,09,43,12.80
2009,05,21,09,44,12.80
2009,05,21,09,45,12.80
2009,05,21,09,46,12.70
2009,05,21,09,47,12.60
2009,05,21,09,48,12.50
2009,05,21,09,49,12.50
2009,05,21,09,50,12.50
2009,05,21,09,51,12.50
2009,05,21,09,52,12.60
2009,05,21,09,53,12.60
2009,05,21,09,54,12.70
2009,05,21,09,55,12.70
2009,05,21,09,56,12.70
2009,05,21,09,57,12.70
2009,05,21,09,58,12.80
2009,05,21,09,59,12.80
2009,05,21,10,00,12.80
2009,05,21,10,01,12.80
2009,05,21,10,02,12.80
2009,05,21,10,03,12.80
2009,05,21,10,04,12.70
2009,05,21,10,05,12.70
2009,05,21,10,06,12.70
2009,05,21,10,07,12.70
2009,05,21,10,08,12.70
2009,05,21,10,09,12.70
2009,05,21,10,10,12.80
2009,05,21,10,11,12.80
2009,05,21,10,12,12.80
2009,05,21,10,13,12.90
2009,05,21,10,14,12.90
2009,05,21,10,15,13.00
2009,05,21,10,16,13.10
2009,05,21,10,17,13.10
2009,05,21,10,18,13.10
2009,05,21,10,19,13.20
2009,05,21,10,20,13.20
2009,05,21,10,21,13.10
2009,05,21,10,22,13.00
2009,05,21,10,23,13.00
2009,05,21,10,24,13.00
2009,05,21,10,25,13.00
2009,05,21,10,26,13.00
2009,05,21,10,27,13.00
2009,05,21,10,28,13.00
2009,05,21,10,29,13.10
2009,05,21,10,30,13.00
2009,05,21,10,31,13.10
2009,05,21,10,32,13.10
2009,05,21,10,33,13.20
2009,05,21,10,34,13.30
2009,05,21,10,35,13.30
2009,05,21,10,36,13.20
2009,05,21,10,37,13.30
2009,05,21,10,38,13.30
2009,05,21,10,39,13.30
2009,05,21,10,40,13.40
2009,05,21,10,41,13.40
2009,05,21,10,42,13.50
2009,05,21,10,43,13.50
2009,05,21,10,44,13.60
2009,05,21,10,45,13.50
2009,05,21,10,46,13.50
2009,05,21,10,47,13.50
2009,05,21,10,48,13.50
2009,05,21,10,49,13.40
2009,05,21,10,50,13.40
2009,05,21,10,51,13.40
2009,05,21,10,52,13.40
2009,05,21,10,53,13.50
2009,05,21,10,54,13.60
2009,05,21,10,55,13.70
2009,05,21,10,56,13.70
2009,05,21,10,57,13.70
2009,05,21,10,58,13.70
2009,05,21,10,59,13.80
2009,05,21,11,00,13.80
2009,05,21,11,01,13.70
2009,05,21,11,02,13.70
2009,05,21,11,03,13.70
2009,05,21,11,04,13.70
2009,05,21,11,05,13.70
2009,05,21,11,06,13.80
2009,05,21,11,07,13.90
2009,05,21,11,08,13.90
2009,05,21,11,09,14.00
2009,05,21,11,10,14.00
2009,05,21,11,11,13.90
2009,05,21,11,12,13.80
2009,05,21,11,13,13.80
2009,05,21,11,14,13.70
2009,05,21,11,15,13.70
2009,05,21,11,16,13.60
2009,05,21,11,17,13.60
2009,05,21,11,18,13.60
2009,05,21,11,19,13.60
2009,05,21,11,20,13.60
2009,05,21,11,21,13.70
2009,05,21,11,22,13.80
2009,05,21,11,23,13.80
2009,05,21,11,24,13.90
2009,05,21,11,25,13.90
2009,05,21,11,26,13.90
2009,05,21,11,27,13.90
2009,05,21,11,28,13.80
2009,05,21,11,29,13.80
2009,05,21,11,30,13.80
2009,05,21,11,31,13.80
2009,05,21,11,32,13.90
2009,05,21,11,33,13.90
2009,05,21,11,34,14.00
2009,05,21,11,35,14.00
2009,05,21,11,36,14.20
2009,05,21,11,37,14.30
2009,05,21,11,38,14.40
2009,05,21,11,39,14.40
2009,05,21,11,40,14.40
2009,05,21,11,41,14.50
2009,05,21,11,42,14.50
2009,05,21,11,43,14.50
2009,05,21,11,44,14.50
2009,05,21,11,45,14.40
2009,05,21,11,46,14.40
2009,05,21,11,47,14.30
2009,05,21,11,48,14.20
2009,05,21,11,49,14.20
2009,05,21,11,50,14.30
2009,05,21,11,51,14.40
2009,05,21,11,52,14.40
2009,05,21,11,53,14.50
2009,05,21,11,54,14.60
2009,05,21,11,55,14.60
2009,05,21,11,56,14.60
2009,05,21,11,57,14.60
2009,05,21,11,58,14.70
2009,05,21,11,59,14.60
2009,05,21,12,00,14.60
2009,05,21,12,01,14.50
2009,05,21,12,02,14.50
2009,05,21,12,03,14.60
2009,05,21,12,04,14.60
2009,05,21,12,05,14.60
2009,05,21,12,06,14.70
2009,05,21,12,07,14.80
2009,05,21,12,08,14.80
2009,05,21,12,09,14.80
2009,05,21,12,10,14.80
2009,05,21,12,11,14.90
2009,05,21,12,12,14.90
2009,05,21,12,13,14.90
2009,05,21,12,14,14.90
2009,05,21,12,15,14.90
2009,05,21,12,16,14.90
2009,05,21,12,17,15.00
2009,05,21,12,18,15.00
2009,05,21,12,19,14.80
2009,05,21,12,20,14.90
2009,05,21,12,21,14.90
2009,05,21,12,22,15.00
2009,05,21,12,23,15.00
2009,05,21,12,24,15.00
2009,05,21,12,25,15.10
2009,05,21,12,26,15.10
2009,05,21,12,27,15.20
2009,05,21,12,28,15.10
2009,05,21,12,29,15.10
2009,05,21,12,30,15.00
2009,05,21,12,31,15.00
2009,05,21,12,32,15.00
2009,05,21,12,33,14.90
2009,05,21,12,34,14.90
2009,05,21,12,35,14.90
2009,05,21,12,36,14.90
2009,05,21,12,37,14.90
2009,05,21,12,38,14.90
2009,05,21,12,39,15.00
2009,05,21,12,40,15.10
2009,05,21,12,41,15.20
2009,05,21,12,42,15.40
2009,05,21,12,43,15.40
2009,05,21,12,44,15.40
2009,05,21,12,45,15.50
2009,05,21,12,46,15.60
2009,05,21,12,47,15.60
2009,05,21,12,48,15.60
2009,05,21,12,49,15.50
2009,05,21,12,50,15.40
2009,05,21,12,51,15.30
2009,05,21,12,52,15.40
2009,05,21,12,53,15.40
2009,05,21,12,54,15.40
2009,05,21,12,55,15.50
2009,05,21,12,56,15.50
2009,05,21,12,57,15.50
2009,05,21,12,58,15.50
2009,05,21,12,59,15.50
2009,05,21,13,00,15.60
2009,05,21,13,01,15.60
2009,05,21,13,02,15.70
2009,05,21,13,03,15.70
2009,05,21,13,04,15.70
2009,05,21,13,05,15.60
2009,05,21,13,06,15.60
2009,05,21,13,07,15.60
2009,05,21,13,08,15.80
2009,05,21,13,09,15.90
2009,05,21,13,10,16.10
2009,05,21,13,11,16.10
2009,05,21,13,12,16.10
2009,05,21,13,13,16.10
2009,05,21,13,14,16.00
2009,05,21,13,15,15.90
2009,05,21,13,16,15.80
2009,05,21,13,17,15.80
2009,05,21,13,18,15.80
2009,05,21,13,19,15.70
2009,05,21,13,20,15.70
2009,05,21,13,21,15.70
2009,05,21,13,22,15.70
2009,05,21,13,23,15.60
2009,05,21,13,24,15.60
2009,05,21,13,25,15.60
2009,05,21,13,26,15.60
2009,05,21,13,27,15.60
2009,05,21,13,28,15.60
2009,05,21,13,29,15.60
2009,05,21,13,30,15.60
2009,05,21,13,31,15.70
2009,05,21,13,32,15.80
2009,05,21,13,33,15.90
2009,05,21,13,34,16.00
2009,05,21,13,35,15.90
2009,05,21,13,36,15.90
2009,05,21,13,37,15.90
2009,05,21,13,38,16.00
2009,05,21,13,39,16.10
2009,05,21,13,40,16.10
2009,05,21,13,41,16.10
2009,05,21,13,42,16.10
2009,05,21,13,43,16.10
2009,05,21,13,44,16.00
2009,05,21,13,45,15.90
2009,05,21,13,46,15.90
2009,05,21,13,47,15.90
2009,05,21,13,48,16.10
2009,05,21,13,49,16.10
2009,05,21,13,50,16.10
2009,05,21,13,51,16.20
2009,05,21,13,52,16.30
2009,05,21,13,53,16.40
2009,05,21,13,54,16.40
2009,05,21,13,55,16.40
2009,05,21,13,56,16.40
2009,05,21,13,57,16.40
2009,05,21,13,58,16.40
2009,05,21,13,59,16.40
2009,05,21,14,00,16.40
2009,05,21,14,01,16.40
2009,05,21,14,02,16.30
2009,05,21,14,03,16.30
2009,05,21,14,04,16.30
2009,05,21,14,05,16.30
2009,05,21,14,06,16.30
2009,05,21,14,07,16.30
2009,05,21,14,08,16.20
2009,05,21,14,09,16.20
2009,05,21,14,10,16.20
2009,05,21,14,11,16.30
2009,05,21,14,12,16.30
2009,05,21,14,13,16.40
2009,05,21,14,14,16.40
2009,05,21,14,15,16.40
2009,05,21,14,16,16.40
2009,05,21,14,17,16.50
2009,05,21,14,18,16.60
2009,05,21,14,19,16.60
2009,05,21,14,20,16.70
2009,05,21,14,21,16.70
2009,05,21,14,22,16.70
2009,05,21,14,23,16.70
2009,05,21,14,24,16.60
2009,05,21,14,25,16.50
2009,05,21,14,26,16.40
2009,05,21,14,27,16.40
2009,05,21,14,28,16.40
2009,05,21,14,29,16.40
2009,05,21,14,30,16.40
2009,05,21,14,31,16.40
2009,05,21,14,32,16.40
2009,05,21,14,33,16.40
2009,05,21,14,34,16.40
2009,05,21,14,35,16.40
2009,05,21,14,36,16.40
2009,05,21,14,37,16.40
2009,05,21,14,38,16.50
2009,05,21,14,39,16.60
2009,05,21,14,40,16.60
2009,05,21,14,41,16.70
2009,05,21,14,42,16.70
2009,05,21,14,43,16.70
2009,05,21,14,44,16.80
2009,05,21,14,45,16.80
2009,05,21,14,46,16.80
2009,05,21,14,47,16.80
2009,05,21,14,48,16.90
2009,05,21,14,49,16.90
2009,05,21,14,50,17.00
2009,05,21,14,51,16.90
2009,05,21,14,52,17.00
2009,05,21,14,53,17.00
2009,05,21,14,54,17.00
2009,05,21,14,55,17.00
2009,05,21,14,56,16.90
2009,05,21,14,57,16.90
2009,05,21,14,58,16.80
2009,05,21,14,59,16.90
2009,05,21,15,00,16.90
2009,05,21,15,01,17.00
2009,05,21,15,02,17.00
2009,05,21,15,03,17.00
2009,05,21,15,04,17.10
2009,05,21,15,05,17.20
2009,05,21,15,06,17.30
2009,05,21,15,07,17.30
2009,05,21,15,08,17.30
2009,05,21,15,09,17.20
2009,05,21,15,10,17.20
2009,05,21,15,11,17.30
2009,05,21,15,12,17.40
2009,05,21,15,13,17.40
2009,05,21,15,14,17.40
2009,05,21,15,15,17.30
2009,05,21,15,16,17.20
2009,05,21,15,17,17.20
2009,05,21,15,18,17.20
2009,05,21,15,19,17.30
2009,05,21,15,20,17.40
2009,05,21,15,21,17.50
2009,05,21,15,22,17.50
2009,05,21,15,23,17.60
2009,05,21,15,24,17.60
2009,05,21,15,25,17.50
2009,05,21,15,26,17.40
2009,05,21,15,27,17.30
2009,05,21,15,28,17.40
2009,05,21,15,29,17.40
2009,05,21,15,30,17.40
2009,05,21,15,31,17.30
2009,05,21,15,32,17.30
2009,05,21,15,33,17.20
2009,05,21,15,34,17.20
2009,05,21,15,35,17.20
2009,05,21,15,36,17.20
2009,05,21,15,37,17.20
2009,05,21,15,38,17.20
2009,05,21,15,39,17.20
2009,05,21,15,40,17.10
2009,05,21,15,41,17.10
2009,05,21,15,42,17.10
2009,05,21,15,43,17.20
2009,05,21,15,44,17.10
2009,05,21,15,45,17.10
2009,05,21,15,46,17.20
2009,05,21,15,47,17.30
2009,05,21,15,48,17.30
2009,05,21,15,49,17.30
2009,05,21,15,50,17.30
2009,05,21,15,51,17.30
2009,05,21,15,52,17.30
2009,05,21,15,53,17.30
2009,05,21,15,54,17.30
2009,05,21,15,55,17.40
2009,05,21,15,56,17.50
2009,05,21,15,57,17.50
2009,05,21,15,58,17.40
2009,05,21,15,59,17.50
2009,05,21,16,00,17.60
2009,05,21,16,01,17.60
2009,05,21,16,02,17.70
2009,05,21,16,03,17.70
2009,05,21,16,04,17.70
2009,05,21,16,05,17.70
2009,05,21,16,06,17.70
2009,05,21,16,07,17.70
2009,05,21,16,08,17.70
2009,05,21,16,09,17.70
2009,05,21,16,10,17.60
2009,05,21,16,11,17.50
2009,05,21,16,12,17.50
2009,05,21,16,13,17.40
2009,05,21,16,14,17.40
2009,05,21,16,15,17.40
2009,05,21,16,16,17.40
2009,05,21,16,17,17.40
2009,05,21,16,18,17.40
2009,05,21,16,19,17.50
2009,05,21,16,20,17.60
2009,05,21,16,21,17.60
2009,05,21,16,22,17.70
2009,05,21,16,23,17.70
2009,05,21,16,24,17.70
2009,05,21,16,25,17.70
2009,05,21,16,26,17.80
2009,05,21,16,27,17.80
2009,05,21,16,28,17.90
2009,05,21,16,29,18.00
2009,05,21,16,30,18.10
2009,05,21,16,31,18.10
2009,05,21,16,32,18.20
2009,05,21,16,33,18.20
2009,05,21,16,34,18.20
2009,05,21,16,35,18.10
2009,05,21,16,36,18.00
2009,05,21,16,37,17.90
2009,05,21,16,38,17.90
2009,05,21,16,39,17.90
2009,05,21,16,40,17.90
2009,05,21,16,41,17.80
2009,05,21,16,42,17.80
2009,05,21,16,43,17.80
2009,05,21,16,44,17.80
2009,05,21,16,45,17.80
2009,05,21,16,46,17.80
2009,05,21,16,47,17.80
2009,05,21,16,48,17.70
2009,05,21,16,49,17.70
2009,05,21,16,50,17.80
2009,05,21,16,51,17.80
2009,05,21,16,52,17.80
2009,05,21,16,53,17.80
2009,05,21,16,54,17.90
2009,05,21,16,55,17.90
2009,05,21,16,56,17.90
2009,05,21,16,57,17.90
2009,05,21,16,58,17.90
2009,05,21,16,59,17.90
2009,05,21,17,00,17.90
2009,05,21,17,01,17.90
2009,05,21,17,02,17.90
2009,05,21,17,03,17.90
2009,05,21,17,04,18.00
2009,05,21,17,05,18.00
2009,05,21,17,06,17.90
2009,05,21,17,07,17.90
2009,05,21,17,08,17.80
2009,05,21,17,09,17.80
2009,05,21,17,10,17.90
2009,05,21,17,11,17.90
2009,05,21,17,12,17.90
2009,05,21,17,13,18.10
2009,05,21,17,14,17.90
2009,05,21,17,15,17.90
2009,05,21,17,16,17.90
2009,05,21,17,17,17.90
2009,05,21,17,18,17.90
2009,05,21,17,19,17.90
2009,05,21,17,20,17.90
2009,05,21,17,21,17.90
2009,05,21,17,22,18.00
2009,05,21,17,23,18.10
2009,05,21,17,24,18.20
2009,05,21,17,25,18.20
2009,05,21,17,26,18.10
2009,05,21,17,27,18.10
2009,05,21,17,28,18.10
2009,05,21,17,29,18.10
2009,05,21,17,30,18.10
2009,05,21,17,31,18.10
2009,05,21,17,32,18.10
2009,05,21,17,33,18.00
2009,05,21,17,34,17.90
2009,05,21,17,35,17.90
2009,05,21,17,36,17.90
2009,05,21,17,37,17.90
2009,05,21,17,38,17.90